Regional Weather Roundup
Issued by NWS

Home | Current Version | Previous Version | Text Only | Print | Product List | Glossary Off
Versions: 1 2 3 4 5 6 7 8 9 10 11 12 13 14 15 16 17 18 19 20 21 22 23 24 25 26 27 28 29 30 31 32 33 34 35 36 37 38 39 40 41 42 43 44 45 46 47 48 49 50

000
ASUS43 KIND 271509
RWRIN

WEATHER ROUNDUP FOR INDIANA
NATIONAL WEATHER SERVICE INDIANAPOLIS IN
1100 AM EDT WED AUG 27 2014

NOTE: "FAIR" INDICATES FEW OR NO CLOUDS BELOW 12,000 FEET WITH NO
SIGNIFICANT WEATHER AND/OR OBSTRUCTIONS TO VISIBILITY.

* - STATION DOES NOT REPORT WEATHER SUCH AS PRECIPITATION OR FOG.

+ - STATION NOT QUALITY CONTROLLED BY THE NATIONAL WEATHER SERVICE.
    USE DATA WITH CAUTION...ESPECIALLY DEWPOINT AND RELATIVE
    HUMIDITY OBSERVATIONS.

INZ001>003-010>013-019-020-271600-
NORTHWEST INDIANA

CITY           SKY/WX    TMP DP  RH WIND       PRES   REMARKS
GARY /AIRPORT/ MOSUNNY   75  63  64 NE6       30.16R
KNOX *+        SUNNY     73  62  70 NE7       30.13F
LA PORTE +     SUNNY     72  59  64 E8        30.15F
MICHIGAN CITY+ SUNNY     72  59  64 NE5       30.15S
MONTICELLO +   SUNNY     74  69  82 CALM      30.12S
RENSSELAER +   SUNNY     75  68  78 NE6       30.14S
VALPARAISO     SUNNY     73  61  65 E7        30.15S

$$

LMZ046-743>745-271600-
SOUTHERN LAKE MICHIGAN

STATION/POSITION TIME  TEMP WIND        PRES
                       AIR  DIR/SP/G
                 (UTC) (F)  (DEG/KT/KT) (MB)
MICHIGAN CITY    1500   69   20/  9/ 10   N/A

$$

INZ004-005-014>016-021>024-271600-
NORTH CENTRAL INDIANA

CITY           SKY/WX    TMP DP  RH WIND       PRES   REMARKS
ELKHART        SUNNY     72  63  73 CALM      30.15F
GOSHEN         SUNNY     72  64  76 NE7       30.15R
LOGANSPORT +   SUNNY     73  68  83 N3        30.13S
PERU/GRISSOM   MOSUNNY   75  75 100 NE5       30.12R
ROCHESTER +    SUNNY     77  64  65 N6        30.14S
SOUTH BEND     SUNNY     72  61  68 NE6       30.15S
WARSAW +       SUNNY     72  63  73 NE3       30.14S

$$

INZ006>009-017-018-025>027-271600-
NORTHEAST INDIANA

CITY           SKY/WX    TMP DP  RH WIND       PRES   REMARKS
ANGOLA *+      SUNNY     72  63  73 N3        30.14S
AUBURN +       SUNNY     73  61  64 N5        30.15R
FORT WAYNE     PTSUNNY   77  70  79 CALM      30.13R
HUNTINGTON +   MOSUNNY   74  69  86 CALM      30.12F

$$

INZ028-029-035-036-043>045-051>053-271600-
WEST CENTRAL INDIANA

CITY           SKY/WX    TMP DP  RH WIND       PRES   REMARKS
GREENCASTLE +  SUNNY     77  70  78 N6        30.14R
LAFAYETTE      CLOUDY    73  70  90 CALM      30.12S FOG
TERRE HAUTE    SUNNY     81  70  69 CALM      30.12R

$$

INZ030>032-037>040-046>048-054>057-064-065-271600-
CENTRAL INDIANA

CITY           SKY/WX    TMP DP  RH WIND       PRES   REMARKS
ANDERSON       MOSUNNY   77  72  83 CALM      30.14
CP ATTERBURY + SUNNY     82  70  65 N3        30.11S
COLUMBUS       SUNNY     82  72  69 CALM      30.11S
FRANKFORT +    PTSUNNY   75  75 100 CALM      30.14S
INDIANAPOLIS   MOSUNNY   79  68  69 NE5       30.11R
-EAGLE CREEK   MOSUNNY   80  67  64 N5        30.12R
KOKOMO *+      MOSUNNY   73  70  88 SE6       30.13R
MARION +       CLOUDY    73  69  88 E3        30.14R HAZE
MT COMFORT *+  SUNNY     79  72  78 N5        30.13R
SHELBYVILLE    SUNNY     80  71  74 NW5       30.11S
ZIONSVILLE +   MOSUNNY   79  70  74 CALM      30.14R

$$

INZ033-034-041-042-049-050-058-059-271600-
EAST CENTRAL INDIANA

CITY           SKY/WX    TMP DP  RH WIND       PRES   REMARKS
MUNCIE         MOSUNNY   78  70  76 E7        30.13S

$$

INZ060-061-067>069-081>083-085>088-271600-
SOUTHWEST INDIANA

CITY           SKY/WX    TMP DP  RH WIND       PRES   REMARKS
EVANSVILLE     SUNNY     87  73  62 CALM      30.11R
WASHINGTON +   SUNNY     82  74  77 CALM      30.11R

$$

INZ062-063-066-070>080-084-089>092-271600-
SOUTH CENTRAL AND SOUTHEAST INDIANA

CITY           SKY/WX    TMP DP  RH WIND       PRES   REMARKS
BLOOMINGTON    MOSUNNY   83  70  64 CALM      30.12R

$$



USA.gov is the U.S. government's official web portal to all federal, state and local government web resources and services.